Change the Weather History Date:

Friday, March 15, 2013

  Actual Average Record
Temperature  
Mean Temperature 66 °F 60 °F  
Max Temperature 75 °F 70 °F 89 °F (2014)
Min Temperature 56 °F 50 °F 42 °F (2002)
Degree Days  
Heating Degree Days 0 6  
Month to date heating degree days 36 90  
Since 1 July heating degree days 707 1012  
Cooling Degree Days 1 0  
Month to date cooling degree days 20 8  
Year to date cooling degree days 32 17  
Growing Degree Days 15 (Base 50)    
Moisture  
Dew Point 52 °F    
Average Humidity 68    
Maximum Humidity 86    
Minimum Humidity 49    
Precipitation  
Precipitation 0.00 in 0.04 in 2.05 in (2003)
Month to date precipitation 0.63 1.60  
Year to date precipitation 2.03 7.88  
Since 1 July precipitation 5.34 12.11  
Snow  
Snow 0.00 in - - ()
Month to date snowfall 0.0  
Year to date snowfall 0.0  
Since 1 July snowfall 0.0  
Snow Depth 0.00 in    
Sea Level Pressure  
Sea Level Pressure 29.99 in    
Wind  
Wind Speed 3 mph (South)    
Max Wind Speed 9 mph    
Max Gust Speed 13 mph    
Visibility 5 miles    
Events      
T = Trace of Precipitation, MM = Missing Value Source: NWS Daily Summary

Daily Weather History Graph

Daily Weather History Graph

Search for Another Location

Airport or City:

Trip Planner

Search our weather history database for the weather conditions in past years. The results will help you decide how hot, cold, wet, or windy it might be!

Date:

Astronomy

Mar. 15, 2013 Rise Set
Actual Time 7:01 AM PDT 6:59 PM PDT
Civil Twilight 6:37 AM PDT 7:24 PM PDT
Nautical Twilight 6:08 AM PDT 7:53 PM PDT
Astronomical Twilight 5:38 AM PDT 8:23 PM PDT
Moon 9:07 AM PDT (3/15) 11:04 PM PDT (3/15)
Length of Visible Light 12h 47m
Length of Day
11h 58m
Waxing Crescent, 16% of the Moon is Illuminated
Mar 15
Waxing Crescent
Mar 19
First Quarter
Mar 27
Full
Apr 2
Last Quarter
Apr 10
New

Hourly Weather History & Observations

Time (PDT) Temp. Dew Point Humidity Pressure Visibility Wind Dir Wind Speed Gust Speed Precip Events Conditions
12:10 AM 57.2 °F 53.6 °F 88% 30.05 in 6.0 mi Variable 3.5 mph - N/A   Haze
12:20 AM 57.2 °F 53.6 °F 88% 30.05 in 6.0 mi South 4.6 mph - N/A   Haze
12:53 AM 57.9 °F 53.1 °F 84% 30.04 in 6.0 mi SSW 4.6 mph - N/A   Haze
1:53 AM 57.9 °F 54.0 °F 87% 30.03 in 5.0 mi Calm Calm - N/A   Overcast
2:53 AM 57.9 °F 53.1 °F 84% 30.02 in 5.0 mi Calm Calm - N/A   Haze
3:53 AM 57.9 °F 53.1 °F 84% 30.00 in 4.0 mi ENE 3.5 mph - N/A   Haze
4:53 AM 57.9 °F 53.1 °F 84% 30.01 in 4.0 mi Calm Calm - N/A   Haze
5:53 AM 57.0 °F 52.0 °F 83% 30.00 in 4.0 mi Calm Calm - N/A   Haze
6:53 AM 57.9 °F 52.0 °F 81% 30.01 in 4.0 mi Calm Calm - N/A   Haze
7:19 AM 57.2 °F 51.8 °F 82% 30.01 in 2.5 mi Calm Calm - N/A   Haze
7:53 AM 57.0 °F 52.0 °F 83% 30.00 in 2.0 mi East 4.6 mph - N/A   Haze
8:32 AM 59.0 °F 51.8 °F 77% 30.02 in 3.0 mi NW 3.5 mph - N/A   Haze
8:42 AM 60.8 °F 51.8 °F 72% 30.02 in 3.0 mi Calm Calm - N/A   Haze
8:53 AM 61.0 °F 53.1 °F 75% 30.02 in 3.0 mi Calm Calm - N/A   Haze
9:53 AM 64.9 °F 53.1 °F 65% 30.02 in 4.0 mi Calm Calm - N/A   Haze
10:53 AM 66.9 °F 53.1 °F 61% 30.03 in 4.0 mi Calm Calm - N/A   Haze
11:53 AM 71.1 °F 53.1 °F 53% 30.01 in 5.0 mi Variable 4.6 mph - N/A   Haze
12:53 PM 73.0 °F 53.1 °F 49% 29.99 in 7.0 mi Variable 4.6 mph - N/A   Clear
1:53 PM 73.9 °F 53.1 °F 48% 29.96 in 10.0 mi South 6.9 mph - N/A   Clear
2:53 PM 73.0 °F 53.1 °F 49% 29.95 in 10.0 mi SW 6.9 mph - N/A   Clear
3:53 PM 70.0 °F 52.0 °F 53% 29.95 in 10.0 mi South 9.2 mph - N/A   Clear
4:53 PM 68.0 °F 51.1 °F 55% 29.94 in 10.0 mi South 6.9 mph - N/A   Clear
5:53 PM 64.9 °F 51.1 °F 61% 29.94 in 10.0 mi SW 4.6 mph - N/A   Clear
6:53 PM 62.1 °F 51.1 °F 67% 29.94 in 10.0 mi SSW 4.6 mph - N/A   Clear
7:53 PM 57.9 °F 52.0 °F 81% 29.95 in 5.0 mi SSW 5.8 mph - N/A   Haze
8:01 PM 57.2 °F 51.8 °F 82% 29.96 in 4.0 mi SW 4.6 mph - N/A   Haze
8:08 PM 57.2 °F 51.8 °F 82% 29.96 in 2.5 mi SSW 4.6 mph - N/A   Haze
8:20 PM 57.2 °F 51.8 °F 82% 29.97 in 4.0 mi Calm Calm - N/A   Haze
8:53 PM 57.0 °F 52.0 °F 83% 29.97 in 4.0 mi Calm Calm - N/A   Haze
9:09 PM 57.2 °F 51.8 °F 82% 29.98 in 4.0 mi Calm Calm - N/A   Haze
9:53 PM 57.9 °F 52.0 °F 81% 29.97 in 4.0 mi ESE 3.5 mph - N/A   Haze
10:53 PM 57.0 °F 52.0 °F 83% 29.96 in 4.0 mi South 4.6 mph - N/A   Haze
11:53 PM 57.0 °F 52.0 °F 83% 29.96 in 3.0 mi Calm Calm - N/A   Haze